EW0765 Weather Reports


Display with metric or nautical units.
time (UTC)temp
F
wind
direction
speed
MPH
gust
MPH
rain 1hr
in
rain 24hr
in
rain mn
in
humidity
%
barometer
mb
20260905194520 76 85 0.0 7.0 0.00 0.18 0.18 76 1013.0
20260905193018 77 59 0.0 6.0 0.00 0.18 0.18 81 1012.9
20260905191516 77 13 0.0 4.0 0.00 0.18 0.18 81 1012.9
20260905190014 76 43 0.0 1.0 0.00 0.19 0.18 84 1012.9
20260905184514 76 38 0.0 5.0 0.00 0.19 0.18 84 1013.1
20260905183012 76 73 0.0 5.0 0.00 0.19 0.18 86 1013.2
20260905181511 76 5 0.0 5.0 0.00 0.19 0.18 87 1013.1
20260905180014 75 302 0.0 2.0 0.00 0.19 0.18 89 1013.2
20260905174508 75 24 0.0 2.0 0.00 0.19 0.18 90 1013.2
20260905173006 74 103 0.0 0.0 0.00 0.19 0.18 92 1013.2
20260905171505 74 99 0.0 0.0 0.00 0.19 0.18 93 1013.3
20260905170004 74 98 0.0 0.0 0.00 0.22 0.18 94 1013.4
20260905164504 74 98 0.0 3.0 0.00 0.22 0.18 93 1013.4
20260905163004 74 58 0.0 1.0 0.01 0.22 0.18 94 1013.5
20260905161502 74 95 0.0 0.0 0.18 0.22 0.18 95 1013.6
20260905160001 74 95 0.0 0.0 0.18 0.24 0.18 95 1013.7
20260905154618 73 96 0.0 0.0 0.18 0.24 0.18 95 1013.7
20260905153059 73 96 0.0 0.0 0.17 0.23 0.17 94 1013.6
20260905151603 73 78 0.0 0.0 0.00 0.06 0.00 94 1013.4
20260905150056 73 78 0.0 2.0 0.00 0.10 0.00 94 1013.3
20260905144555 72 263 0.0 0.0 0.00 0.10 0.00 95 1013.2
20260905143053 72 262 0.0 0.0 0.00 0.10 0.00 96 1013.2
20260905141556 72 262 0.0 0.0 0.00 0.10 0.00 96 1013.0
20260905140051 72 262 0.0 0.0 0.00 0.16 0.00 97 1013.1
20260905134552 72 261 0.0 0.0 0.00 0.16 0.00 97 1013.2
20260905133049 71 262 0.0 0.0 0.00 0.16 0.00 97 1013.1
20260905131551 71 262 0.0 0.0 0.00 0.16 0.00 97 1013.4
20260905130046 70 262 0.0 0.0 0.00 0.16 0.00 97 1013.3
20260905124545 70 262 0.0 1.0 0.00 0.16 0.00 97 1013.0
20260905123043 70 261 0.0 0.0 0.00 0.16 0.00 97 1013.2
20260905121543 70 261 0.0 0.0 0.00 0.16 0.00 97 1013.2
20260905120045 69 261 0.0 0.0 0.00 0.16 0.00 97 1012.8
20260905114543 69 261 0.0 0.0 0.00 0.16 0.00 97 1012.9
20260905113041 69 261 0.0 0.0 0.00 0.16 0.00 97 1012.9
20260905111545 69 261 0.0 0.0 0.00 0.16 0.00 97 1013.0
20260905110040 69 261 0.0 0.0 0.00 0.16 0.00 96 1013.2
20260905104547 69 261 0.0 0.0 0.00 0.16 0.00 96 1013.2
20260905103040 69 261 0.0 0.0 0.00 0.16 0.00 96 1013.7
20260905101540 68 261 0.0 0.0 0.00 0.16 0.00 96 1013.8
20260905100039 68 261 0.0 0.0 0.00 0.16 0.00 96 1013.9
20260905094538 68 261 0.0 0.0 0.00 0.16 0.00 96 1013.6
20260905093037 68 261 0.0 0.0 0.00 0.16 0.00 96 1013.0
20260905091544 68 260 0.0 0.0 0.00 0.16 0.00 96 1012.7
20260905090036 68 261 0.0 0.0 0.00 0.16 0.00 96 1012.6
20260905084544 68 261 0.0 0.0 0.00 0.16 0.00 96 1012.6
20260905083034 68 261 0.0 0.0 0.00 0.16 0.00 96 1012.4
20260905081534 68 261 0.0 0.0 0.00 0.16 0.00 96 1011.8
20260905080040 68 260 0.0 0.0 0.00 0.16 0.00 96 1012.1
20260905074532 68 260 0.0 0.0 0.00 0.16 0.00 96 1012.4
20260905073035 68 261 0.0 0.0 0.00 0.16 0.00 96 1012.2
20260905071531 69 261 0.0 0.0 0.00 0.16 0.00 96 1012.5
20260905070058 69 261 0.0 0.0 0.00 0.16 0.00 96 1012.2
20260905064526 69 261 0.0 0.0 0.00 0.16 0.00 96 1012.4
20260905063025 69 260 0.0 0.0 0.00 0.16 0.00 95 1012.5
20260905061522 70 261 0.0 0.0 0.00 0.16 0.00 96 1012.8
20260905060019 70 260 0.0 0.0 0.00 0.16 0.00 96 1013.2
20260905054539 70 261 0.0 0.0 0.00 0.16 0.00 96 1013.3
20260905053016 70 260 0.0 0.0 0.00 0.16 0.00 96 1013.5
20260905051533 70 261 0.0 0.0 0.00 0.16 0.00 95 1013.6
20260905050013 70 260 0.0 0.0 0.00 0.16 0.00 95 1013.7
20260905044518 70 261 0.0 0.0 0.00 0.16 0.00 95 1013.8
20260905043012 70 261 0.0 0.0 0.00 0.16 0.00 96 1013.8
20260905041510 70 261 0.0 0.0 0.00 0.16 0.00 95 1013.7
20260905040008 70 261 0.0 0.0 0.00 0.17 0.16 95 1013.9
20260905034508 70 260 0.0 0.0 0.00 0.17 0.16 95 1013.8
20260905033014 71 261 0.0 0.0 0.00 0.17 0.16 95 1013.8
20260905031510 71 260 0.0 0.0 0.00 0.17 0.16 95 1013.7
20260905030007 71 261 0.0 0.0 0.00 0.21 0.16 95 1013.7
20260905024506 71 260 0.0 0.0 0.00 0.21 0.16 95 1013.6
20260905023006 71 261 0.0 0.0 0.00 0.21 0.16 95 1013.9
20260905021505 72 260 0.0 0.0 0.00 0.21 0.16 95 1013.8
20260905020011 72 261 0.0 0.0 0.00 0.21 0.16 95 1013.7
20260905014504 72 260 0.0 0.0 0.00 0.21 0.16 94 1013.7
20260905013003 72 261 0.0 0.0 0.00 0.21 0.16 94 1013.8
20260905011506 72 260 0.0 0.0 0.00 0.21 0.16 94 1014.0
20260905010003 72 261 0.0 0.0 0.00 0.21 0.16 94 1013.7
20260905004503 73 261 0.0 0.0 0.00 0.21 0.16 94 1013.7
20260905003005 73 261 0.0 0.0 0.00 0.21 0.16 94 1013.6
20260905001502 73 260 0.0 0.0 0.00 0.21 0.16 94 1013.9
20260905000001 74 261 0.0 0.0 0.00 0.28 0.16 93 1013.5
20260904234500 74 261 0.0 0.0 0.00 0.28 0.16 93 1013.6
20260904233100 75 261 0.0 0.0 0.00 0.28 0.16 93 1013.8
20260904231600 75 261 0.0 0.0 0.00 0.28 0.16 93 1014.0
20260904230109 75 260 0.0 0.0 0.00 1.13 0.16 93 1013.4
20260904224609 76 260 0.0 0.0 0.00 1.13 0.16 93 1013.7
20260904223057 75 261 0.0 0.0 0.00 1.13 0.16 92 1013.7
20260904221557 76 261 0.0 0.0 0.00 1.13 0.16 92 1013.4
20260904220058 76 260 0.0 0.0 0.00 1.29 0.16 91 1013.2
20260904214558 76 260 0.0 0.0 0.00 1.29 0.16 91 1013.0
20260904213103 76 260 0.0 0.0 0.00 1.29 0.16 91 1012.7
20260904211600 76 261 0.0 0.0 0.00 1.29 0.16 92 1012.5
20260904210107 76 261 0.0 0.0 0.00 1.29 0.16 92 1012.4
20260904204554 76 261 0.0 0.0 0.00 1.29 0.16 92 1011.9
20260904203051 75 260 0.0 0.0 0.00 1.29 0.16 92 1011.9
20260904201548 75 261 0.0 0.0 0.00 1.29 0.16 92 1012.2
20260904200046 75 261 0.0 0.0 0.00 1.29 0.16 93 1012.7